Location: Utrecht
(52.0907°N, 5.1214°E)
Time: 12:12:33
(UTC+02:00)

JY1SAT - Visible Passes

Search period start: 25 June 2022 00:00
Search period end: 05 July 2022 00:00
Orbit: 567 x 585 km, 97.6° (Epoch: 24 June)

Date Brightness Start Highest point End Pass type
(mag) Time Alt. Az. Time Alt. Az. Time Alt. Az.
25 Jun ? 23:30:14 10° S 23:34:10 41° W 23:38:07 10° NNW visible
26 Jun ? 23:33:56 10° SSW 23:37:49 38° W 23:41:43 10° NNW visible
27 Jun ? 23:37:39 10° SSW 23:41:28 35° W 23:45:18 10° NNW visible
28 Jun ? 23:41:22 10° SSW 23:45:06 32° W 23:48:53 10° NNW visible
29 Jun ? 23:45:05 10° SSW 23:48:45 30° W 23:52:27 10° NNW visible
30 Jun ? 23:48:49 10° SSW 23:52:23 28° W 23:56:01 10° NW visible
01 Jul ? 23:52:33 10° SSW 23:56:02 26° W 23:59:33 10° NW visible
02 Jul ? 23:56:18 10° SSW 23:59:41 24° W 00:03:05 10° NW visible
04 Jul ? 00:00:03 10° SW 00:03:19 22° W 00:06:37 10° NW visible
